Tracking 28888 objects as of 23-May-2024
HD Live streaming from Space Station
objects crossing your sky now

STARLINK-1860

Track STARLINK-1860 now!
10-day predictions
STARLINK-1860 is classified as:


NORAD ID: 47147
Int'l Code: 2020-088AB
Perigee: 551.4 km
Apogee: 552.6 km
Inclination: 53.1 °
Period: 95.5 minutes
Semi major axis: 6922 km
RCS: Unknown
Launch date: November 25, 2020
Source: United States (US)
Launch site: AIR FORCE EASTERN TEST RANGE (AFETR)
Your satellite tracking list
Your tracking list is empty




NASA's NSSDC Master Catalog

Two Line Element Set (TLE):
1 47147U 20088AB  24143.84847235  .00001439  00000-0  11317-3 0  9999
2 47147  53.0549   5.7525 0000838 162.1212 197.9807 15.07176085193249
Source of the keplerian elements: AFSPC